Weather History for KSTC - December, 2013

Change the Weather History Date:

Monday, December 9, 2013

  Actual Average Record
Temperature  
Mean Temperature -3 °F 18 °F  
Max Temperature 2 °F 26 °F 58 °F (1939)
Min Temperature -9 °F 9 °F -20 °F (1977)
Degree Days  
Heating Degree Days 68 47  
Month to date heating degree days 501 409  
Since 1 July heating degree days 2374 2334  
Cooling Degree Days 0 0  
Month to date cooling degree days 0 0  
Year to date cooling degree days 578 465  
Moisture  
Dew Point -9 °F    
Average Humidity 80    
Maximum Humidity 95    
Minimum Humidity 64    
Precipitation  
Precipitation 0.02 in 0.03 in 0.87 in (2012)
Month to date precipitation 0.97 0.27  
Year to date precipitation 28.04 27.18  
Snow  
Snow 0.20 in 0.30 in 11.00 in (2012)
Month to date snowfall 7.4 2.8  
Since 1 July snowfall 11.0 12.0  
Snow Depth 6.00 in    
Sea Level Pressure  
Sea Level Pressure 30.05 in    
Wind  
Wind Speed 11 mph (WSW)    
Max Wind Speed 23 mph    
Max Gust Speed 28 mph    
Visibility 7 miles    
Events Snow    
T = Trace of Precipitation, MM = Missing Value Source: NWS Daily Summary

Daily Weather History Graph

Daily Weather History Graph

Search for Another Location

Airport or City:

Trip Planner

Search our weather history database for the weather conditions in past years. The results will help you decide how hot, cold, wet, or windy it might be!

Date:

Astronomy

Dec. 09, 2013 Rise Set
Actual Time 7:44 AM CST 4:32 PM CST
Civil Twilight 7:10 AM CST 5:06 PM CST
Nautical Twilight 6:33 AM CST 5:44 PM CST
Astronomical Twilight 5:57 AM CST 6:20 PM CST
Moon 12:20 PM CST (12/9) No Moon Set
Length of Visible Light 9h 55m
Length of Day
8h 47m
Waxing Crescent, 51% of the Moon is Illuminated
Dec 9
Waxing Crescent
Dec 17
Full
Dec 25
Last Quarter
Jan 1
New
Jan 7
First Quarter

Hourly Weather History & Observations

Time (CST) Temp. Windchill Dew Point Humidity Pressure Visibility Wind Dir Wind Speed Gust Speed Precip Events Conditions
12:00 AM 1.4 °F - -0.4 °F 92% 30.00 in 4.0 mi Calm Calm - 0.00 in   Overcast
12:53 AM -0.9 °F - -4.0 °F 87% 30.08 in 8.0 mi Calm Calm - 0.00 in   Mostly Cloudy
1:14 AM -0.4 °F - -4.0 °F 85% 29.97 in 5.0 mi Calm Calm - N/A   Partly Cloudy
1:53 AM -2.9 °F -16.5 °F -6.0 °F 87% 30.07 in 6.0 mi WSW 6.9 mph - N/A   Clear
2:29 AM -2.2 °F -14.2 °F -5.8 °F 85% 29.97 in 4.0 mi WSW 5.8 mph - N/A   Scattered Clouds
2:50 AM -2.2 °F -15.6 °F -5.8 °F 85% 29.96 in 2.0 mi WSW 6.9 mph - N/A   Partly Cloudy
2:53 AM -2.0 °F -15.4 °F -5.1 °F 87% 30.06 in 2.0 mi WSW 6.9 mph - N/A   Partly Cloudy
3:22 AM -0.4 °F -15.7 °F -4.0 °F 85% 29.96 in 4.0 mi West 9.2 mph - N/A   Clear
3:53 AM -0.0 °F -14.2 °F -4.0 °F 83% 30.06 in 9.0 mi West 8.1 mph - N/A   Clear
4:15 AM -0.4 °F -13.4 °F -4.0 °F 85% 29.94 in 3.0 mi West 6.9 mph - N/A   Partly Cloudy
4:53 AM -2.0 °F -19.6 °F -6.0 °F 83% 30.05 in 9.0 mi West 11.5 mph - N/A   Clear
5:53 AM -4.0 °F -25.2 °F -9.0 °F 79% 30.06 in 10.0 mi West 16.1 mph 23.0 mph N/A   Partly Cloudy
6:53 AM -6.0 °F -27.0 °F -11.9 °F 75% 30.08 in 10.0 mi West 15.0 mph - N/A   Clear
7:53 AM -8.0 °F -28.0 °F -14.1 °F 75% 30.12 in 10.0 mi West 12.7 mph - N/A   Clear
8:53 AM -7.1 °F -28.4 °F -14.1 °F 72% 30.14 in 10.0 mi West 15.0 mph 20.7 mph N/A   Clear
9:53 AM -6.0 °F -28.4 °F -13.0 °F 72% 30.15 in 10.0 mi West 17.3 mph - N/A   Clear
10:53 AM -5.1 °F -26.6 °F -13.0 °F 69% 30.16 in 9.0 mi West 16.1 mph - N/A   Clear
11:53 AM -4.0 °F -25.8 °F -11.9 °F 69% 30.15 in 8.0 mi West 17.3 mph 25.3 mph N/A   Clear
12:53 PM -2.9 °F -22.4 °F -11.9 °F 65% 30.14 in 10.0 mi West 13.8 mph - N/A   Clear
1:53 PM -2.9 °F -22.4 °F -11.9 °F 65% 30.15 in 10.0 mi West 13.8 mph 23.0 mph 0.00 in   Clear
2:53 PM -2.9 °F -20.8 °F -11.9 °F 65% 30.14 in 10.0 mi WSW 11.5 mph - N/A   Clear
3:53 PM -2.9 °F -20.8 °F -11.9 °F 65% 30.14 in 10.0 mi WSW 11.5 mph - N/A   Clear
4:53 PM -6.0 °F -18.6 °F -14.1 °F 68% 30.16 in 10.0 mi SSW 5.8 mph - N/A   Clear
5:53 PM -8.0 °F -21.0 °F -14.1 °F 75% 30.12 in 10.0 mi SSE 5.8 mph - N/A   Clear
6:53 PM -6.0 °F -21.5 °F -11.9 °F 75% 30.11 in 10.0 mi SSW 8.1 mph - N/A   Scattered Clouds
7:53 PM -6.0 °F -20.1 °F -11.9 °F 75% 30.09 in 10.0 mi South 6.9 mph - N/A   Scattered Clouds
8:53 PM -7.1 °F -22.8 °F -11.9 °F 79% 30.04 in 10.0 mi SSE 8.1 mph - N/A   Overcast
9:53 PM -5.1 °F -23.5 °F -9.9 °F 80% 29.99 in 10.0 mi SSE 11.5 mph - N/A   Overcast
10:53 PM -2.0 °F -18.7 °F -8.0 °F 76% 29.94 in 7.0 mi SE 10.4 mph - N/A   Overcast
11:13 PM -2.2 °F -18.9 °F -7.6 °F 78% 29.81 in 1.8 mi SE 10.4 mph - 0.00 in Snow Light Snow
11:21 PM -2.2 °F -18.9 °F -7.6 °F 78% 29.81 in 1.5 mi SSE 10.4 mph - 0.01 in Snow Light Snow
11:53 PM -0.9 °F -16.4 °F -5.1 °F 83% 29.91 in 1.2 mi SSE 9.2 mph - 0.02 in Snow Light Snow